Weather History for North Myrtle Beach, SC

Change the Weather History Date:

Sunday, August 4, 2013

  Actual Average Record
Temperature  
Mean Temperature 81 °F 80 °F  
Max Temperature 91 °F 87 °F 101 °F (1954)
Min Temperature 71 °F 73 °F 65 °F (1956)
Degree Days  
Heating Degree Days 0 0  
Month to date heating degree days 0 0  
Since 1 June heating degree days 0 0  
Since 1 July heating degree days 0 0  
Cooling Degree Days 16 15  
Month to date cooling degree days 61 60  
Year to date cooling degree days 1097 1105  
Since 1 June cooling degree days 917 893  
Growing Degree Days 30 (Base 50)    
Moisture  
Dew Point 72 °F    
Average Humidity 77    
Maximum Humidity 94    
Minimum Humidity 59    
Precipitation  
Precipitation 0.00 in 0.21 in 1.06 in (2000)
Month to date precipitation 0.76 0.85  
Year to date precipitation 37.33 28.79  
Sea Level Pressure  
Sea Level Pressure 29.94 in    
Wind  
Wind Speed 4 mph (NW)    
Max Wind Speed 15 mph    
Max Gust Speed 21 mph    
Visibility 10 miles    
Events      
T = Trace of Precipitation, MM = Missing Value Source: NWS Daily Summary

Daily Weather History Graph

Daily Weather History Graph

Search for Another Location

Airport:

Trip Planner

Search our weather history database for the weather conditions in past years. The results will help you decide how hot, cold, wet, or windy it might be!

Date:

Astronomy

Aug. 04, 2013 Rise Set
Actual Time 6:29 AM EDT 8:12 PM EDT
Civil Twilight 6:01 AM EDT 8:39 PM EDT
Nautical Twilight 5:29 AM EDT 9:12 PM EDT
Astronomical Twilight 4:54 AM EDT 9:46 PM EDT
Moon 4:29 AM EDT (8/4) 6:34 PM EDT (8/4)
Length of Visible Light 14h 37m
Length of Day
13h 43m
Waning Crescent, 5% of the Moon is Illuminated
Aug 4
Waning Crescent
Aug 6
New
Aug 14
First Quarter
Aug 20
Full
Aug 28
Last Quarter

Hourly Weather History & Observations

Time (EDT) Temp. Heat Index Dew Point Humidity Pressure Visibility Wind Dir Wind Speed Gust Speed Precip Events Conditions
12:53 AM 78.1 °F - 75.0 °F 90% 29.96 in 10.0 mi WSW 3.5 mph - N/A   Clear
1:53 AM 78.1 °F - 75.0 °F 90% 29.93 in 10.0 mi West 5.8 mph - N/A   Clear
2:53 AM 77.0 °F - 75.0 °F 94% 29.92 in 10.0 mi WSW 4.6 mph - N/A   Clear
3:53 AM 75.9 °F - 73.9 °F 94% 29.91 in 10.0 mi West 3.5 mph - N/A   Clear
4:53 AM 75.0 °F - 73.9 °F 96% 29.92 in 8.0 mi Calm Calm - N/A   Clear
5:53 AM 75.0 °F - 73.0 °F 94% 29.92 in 8.0 mi Calm Calm - N/A   Clear
6:53 AM 75.0 °F - 73.0 °F 94% 29.94 in 7.0 mi West 3.5 mph - N/A   Clear
7:53 AM 77.0 °F - 73.0 °F 88% 29.95 in 9.0 mi WSW 4.6 mph - N/A   Clear
8:53 AM 79.0 °F - 73.0 °F 82% 29.95 in 9.0 mi WNW 4.6 mph - N/A   Clear
9:53 AM 82.9 °F 89.4 °F 73.9 °F 74% 29.95 in 10.0 mi NNW 4.6 mph - N/A   Clear
10:53 AM 84.9 °F 91.4 °F 73.0 °F 67% 29.94 in 10.0 mi Calm Calm - N/A   Clear
11:53 AM 88.0 °F 94.7 °F 72.0 °F 59% 29.94 in 10.0 mi Calm Calm - N/A   Clear
12:53 PM 86.0 °F 95.1 °F 75.0 °F 70% 29.93 in 10.0 mi South 8.1 mph - N/A   Clear
1:53 PM 88.0 °F 94.7 °F 72.0 °F 59% 29.92 in 10.0 mi WSW 4.6 mph - N/A   Mostly Cloudy
2:53 PM 86.0 °F 95.1 °F 75.0 °F 70% 29.90 in 8.0 mi Variable 3.5 mph - N/A   Mostly Cloudy
3:53 PM 88.0 °F 93.8 °F 71.1 °F 57% 29.91 in 10.0 mi North 6.9 mph - N/A   Mostly Cloudy
4:53 PM 87.1 °F 92.8 °F 71.1 °F 59% 29.91 in 10.0 mi North 9.2 mph - N/A   Mostly Cloudy
5:53 PM 84.9 °F 90.1 °F 71.1 °F 63% 29.93 in 10.0 mi North 10.4 mph 16.1 mph N/A   Mostly Cloudy
6:53 PM 82.9 °F 86.5 °F 69.1 °F 63% 29.95 in 10.0 mi NNE 11.5 mph 17.3 mph N/A   Mostly Cloudy
7:53 PM 79.0 °F - 70.0 °F 74% 29.97 in 10.0 mi NE 4.6 mph - N/A   Clear
8:53 PM 75.9 °F - 70.0 °F 82% 29.98 in 10.0 mi NE 3.5 mph - N/A   Clear
9:53 PM 75.0 °F - 70.0 °F 84% 30.01 in 10.0 mi Calm Calm - N/A   Clear
10:53 PM 73.0 °F - 69.1 °F 87% 30.01 in 10.0 mi NE 4.6 mph - N/A   Clear
11:53 PM 72.0 °F - 66.9 °F 84% 30.02 in 10.0 mi ENE 4.6 mph - N/A   Clear